Vero Beach, FL

7:02 AM EDT on March 27, 2017 (GMT -0400)
Vero Beach Municipal

Weather History for KVRB - April, 2013

Change the Weather History Date:

Wednesday, April 3, 2013

  Actual Average Record
Temperature  
Mean Temperature 76 °F 69 °F  
Max Temperature 83 °F 79 °F 88 °F (1977)
Min Temperature 69 °F 60 °F 45 °F (1972)
Degree Days  
Heating Degree Days 0 1  
Month to date heating degree days 0 3  
Since 1 July heating degree days 398 443  
Cooling Degree Days 11 5  
Month to date cooling degree days 27 15  
Year to date cooling degree days 324 283  
Growing Degree Days 26 (Base 50)    
Moisture  
Dew Point 66 °F    
Average Humidity 71    
Maximum Humidity 84    
Minimum Humidity 58    
Precipitation  
Precipitation 0.00 in 0.11 in 2.57 in (2002)
Month to date precipitation 0.00 0.34  
Year to date precipitation 3.65 9.63  
Sea Level Pressure  
Sea Level Pressure 30.05 in    
Wind  
Wind Speed 12 mph (ESE)    
Max Wind Speed 21 mph    
Max Gust Speed 26 mph    
Visibility 10 miles    
Events      
T = Trace of Precipitation, MM = Missing Value Source: NWS Daily Summary

Daily Weather History Graph

Daily Weather History Graph

Search for Another Location

Airport or City:

Trip Planner

Search our weather history database for the weather conditions in past years. The results will help you decide how hot, cold, wet, or windy it might be!

Date:

Astronomy

Apr. 03, 2013 Rise Set
Actual Time 7:09 AM EDT 7:40 PM EDT
Civil Twilight 6:46 AM EDT 8:04 PM EDT
Nautical Twilight 6:18 AM EDT 8:31 PM EDT
Astronomical Twilight 5:50 AM EDT 8:59 PM EDT
Moon 2:16 AM EDT (4/3) 1:22 PM EDT (4/3)
Length of Visible Light 13h 17m
Length of Day
12h 30m
Last Quarter, 45% of the Moon is Illuminated
Apr 3
Last Quarter
Apr 10
New
Apr 18
First Quarter
Apr 25
Full
May 2
Last Quarter

Hourly Weather History & Observations

Time (EDT) Temp. Heat Index Dew Point Humidity Pressure Visibility Wind Dir Wind Speed Gust Speed Precip Events Conditions
12:53 AM 70.0 °F - 64.0 °F 81% 30.09 in 10.0 mi East 6.9 mph - N/A   Clear
1:53 AM 71.1 °F - 64.0 °F 78% 30.08 in 10.0 mi East 5.8 mph - N/A   Clear
2:53 AM 70.0 °F - 64.0 °F 81% 30.07 in 10.0 mi ESE 4.6 mph - N/A   Clear
3:53 AM 71.1 °F - 64.0 °F 78% 30.04 in 10.0 mi East 5.8 mph - N/A   Clear
4:53 AM 70.0 °F - 64.0 °F 81% 30.04 in 10.0 mi East 6.9 mph - N/A   Clear
5:53 AM 71.1 °F - 63.0 °F 75% 30.04 in 10.0 mi East 8.1 mph - N/A   Clear
6:53 AM 71.1 °F - 64.9 °F 81% 30.05 in 10.0 mi ESE 6.9 mph - N/A   Scattered Clouds
7:06 AM 71.6 °F - 66.2 °F 83% 30.05 in 10.0 mi ESE 5.8 mph - N/A   Mostly Cloudy
7:17 AM 71.6 °F - 66.2 °F 83% 30.05 in 10.0 mi ESE 6.9 mph - N/A   Mostly Cloudy
7:53 AM 72.0 °F - 66.9 °F 84% 30.06 in 10.0 mi SE 5.8 mph - N/A   Partly Cloudy
8:53 AM 75.0 °F - 66.0 °F 73% 30.08 in 10.0 mi SE 12.7 mph - N/A   Partly Cloudy
9:53 AM 79.0 °F - 66.0 °F 64% 30.07 in 10.0 mi SE 15.0 mph - N/A   Clear
10:53 AM 80.1 °F 82.1 °F 66.0 °F 62% 30.08 in 10.0 mi SE 13.8 mph 20.7 mph N/A   Scattered Clouds
11:53 AM 81.0 °F 82.7 °F 64.9 °F 58% 30.07 in 10.0 mi SE 15.0 mph - N/A   Clear
12:53 PM 81.0 °F 82.7 °F 64.9 °F 58% 30.05 in 10.0 mi SE 19.6 mph - N/A   Partly Cloudy
1:53 PM 82.9 °F 85.4 °F 66.9 °F 58% 30.04 in 10.0 mi ESE 17.3 mph 23.0 mph N/A   Clear
2:53 PM 82.0 °F 84.5 °F 66.9 °F 60% 30.02 in 10.0 mi ESE 17.3 mph 23.0 mph N/A   Clear
3:53 PM 79.0 °F - 68.0 °F 69% 30.03 in 10.0 mi ESE 15.0 mph - N/A   Scattered Clouds
4:53 PM 78.1 °F - 69.1 °F 74% 30.00 in 10.0 mi ESE 13.8 mph - N/A   Mostly Cloudy
5:53 PM 77.0 °F - 68.0 °F 74% 30.01 in 10.0 mi SE 12.7 mph - N/A   Mostly Cloudy
6:53 PM 75.9 °F - 68.0 °F 76% 30.01 in 10.0 mi SE 15.0 mph - N/A   Mostly Cloudy
7:53 PM 75.0 °F - 68.0 °F 79% 30.00 in 10.0 mi SE 13.8 mph - N/A   Clear
8:53 PM 75.0 °F - 69.1 °F 82% 30.03 in 10.0 mi SE 11.5 mph - N/A   Clear
9:53 PM 75.0 °F - 68.0 °F 79% 30.05 in 10.0 mi SE 9.2 mph - N/A   Scattered Clouds
10:53 PM 75.0 °F - 69.1 °F 82% 30.06 in 10.0 mi SE 10.4 mph - N/A   Mostly Cloudy
11:53 PM 75.0 °F - 69.1 °F 82% 30.06 in 10.0 mi SSE 10.4 mph - N/A   Mostly Cloudy